Regional Weather Roundup
Issued by NWS Charleston, SC

Current Version | Previous Version | Text Only | Print | Product List | Glossary Off
Versions: 1 2 3 4 5 6 7 8 9 10 11 12 13 14 15 16 17 18 19 20 21 22 23 24 25 26 27 28 29 30 31 32 33 34 35 36 37 38 39 40 41 42 43 44 45 46 47 48 49 50

148
ASUS42 KCHS 171527
RWRCHS

REGIONAL WEATHER ROUNDUP
NATIONAL WEATHER SERVICE CHARLESTON SC
1100 AM EDT TUE OCT 17 2017

NOTE: "FAIR" INDICATES FEW OR NO CLOUDS BELOW 12,000 FEET WITH NO
SIGNIFICANT WEATHER AND/OR OBSTRUCTIONS TO VISIBILITY.

NOT ALL STATIONS ARE QUALITY CONTROLLED. USE DATA WITH CAUTION...
ESPECIALLY DEWPOINT OBSERVATIONS.

SCZ027-030-031-034>040-042>050-171600-
...SOUTHEAST SOUTH CAROLINA...

CITY           SKY/WX    TMP DP  RH WIND       PRES   REMARKS
N CHARLESTON   CLOUDY    57  44  62 NE14      30.29R
WATERFRONT PRK   N/A     60  52  74 NE20      30.12
JOHNS ISLAND   FAIR      59  45  58 N16G22    30.27S
PINOPOLIS        N/A     55  48  76 NE15      30.22R
MONCKS CORNER  FAIR      57  41  54 NE15      30.30S
SUMMERVILLE    FAIR      59  43  55 NE12G23   30.31S
BEAUFORT MCAS  CLOUDY    58  47  66 NE12      30.27S
BEAUFORT ARPT  FAIR      59  45  58 NE21G30   30.27S
HILTON HEAD IS PTSUNNY   61  48  63 N14G31    30.26
WALTERBORO     MOSUNNY   61  39  44 NE13G22   30.31S
ALLENDALE        N/A     63  39  42 NE12G18     N/A

...SOUTHERN MIDLANDS AND PEE DEE...

CITY           SKY/WX    TMP DP  RH WIND       PRES   REMARKS
GEORGETOWN     FAIR      55  45  67 N10G18    30.30R
KINGSTREE      FAIR      59  37  44 N7G16     30.33R
ORANGEBURG     SUNNY     62  39  42 NE15G21   30.33R
BARNWELL         N/A     64  39  39 NE13G21   30.33S
AIKEN          FAIR      59  37  44 NE18G24   30.38S
MANNING        LGT RAIN  61  43  51 MISG      30.32S VSB 1/2
COLUMBIA       MOSUNNY   61  40  45 NE13G21   30.35R
SUMTER         MOSUNNY   61  38  42 NE20      30.32R
FLORENCE       SUNNY     60  40  47 NE16      30.33S
MYRTLE BEACH   PTSUNNY   57  45  64 N13       30.31R
N MYRTLE BEACH PTSUNNY   57  45  64 N12G21    30.29R

$$

GAZ063-065-086>088-099>101-113>116-118-119-134>141-150-171600-
...SOUTHEAST GEORGIA...

CITY           SKY/WX    TMP DP  RH WIND       PRES   REMARKS
SAVANNAH ARPT  CLOUDY    59  47  64 NE13G22   30.27R
HUNTER AAF     CLOUDY    61  46  57 N13       30.24R
FORT STEWART   PTSUNNY   59  45  60 NE12      30.26R
STATESBORO     MOSUNNY   63  36  37 NE9       30.30S
SYLVANIA       SUNNY     63  44  50 E13G20    30.31S
CLAXTON        FAIR      64  43  46 N13G22    30.29S

...CSRA...CENTRAL AND FAR SOUTHEAST GEORGIA...

CITY           SKY/WX    TMP DP  RH WIND       PRES   REMARKS
THOMSON        SUNNY     60  38  43 SE16      30.40S
AUGUSTA-BUSH   SUNNY     64  40  41 NE14G21   30.34R
AUGUSTA-DANIEL SUNNY     62  40  44 E15       30.35R
SWAINSBORO     FAIR      63  41  45 MISG      30.32S
VIDALIA        SUNNY     64  41  42 NE21G26   30.30R
EASTMAN        FAIR      65  23  20 NE16G22   30.33S
HAZLEHURST     FAIR      65  24  21 NE14G23   30.28R
ALMA           MOSUNNY   63  44  50 NE8G18    30.26R
WAYCROSS       CLOUDY    62  46  55 E13       30.25R
JESUP          NOT AVBL
BAXLEY         FAIR      63  39  42 NE16      30.27R
BRUNSWICK      CLOUDY    64  54  68 N17G23    30.23S
SAINT SIMONS   CLOUDY    69  60  73 NE20G31   30.20R

$$

SCZ027-028-034-036>038-045-046-048>050-GAZ119-141-171600-
...LAKE AND SUPPLEMENTAL COASTAL OBSERVATIONS...

STATION/POSITION TIME  TEMP    WIND        PRES    WAVE   SWELL
                       AIR SEA DIR/SP/G            HT/PER HT/PER/DIR
                 (UTC) (F)     (DEG/KT/KT) (MB)    (FT/S) (FT/S/D)
WINYAH BAY       1445   56      20/ 10     1025.0S
LAKE MURRAY      1520   60      40/  5/ 11 1027.1S
ACE BASIN NERRS  1445   57      10/  5     1025.0S
FORT PULASKI     1500   61 78   30/ 18/ 23 1024.8
SAPELO ISLAND    1500   64      20/ 15     1023.0

$$

ANZ835-935-AMZ111-154-330-350-352-354-370-450-454-472-171600-
...C-MAN AND BUOY OBSERVATIONS...

STATION/POSITION TIME  TEMP    WIND        PRES    WAVE   SWELL
                       AIR SEA DIR/SP/G            HT/PER HT/PER/DIR
                 (UTC) (F)     (DEG/KT/KT) (MB)    (FT/S) (FT/S/D)
BUOY 41004       1510   68 80   20/ 25/ 31 1022.5
BUOY 41008       1450   69 79   50/ 23/ 29 1021.9R   7/ 6
FOLLY BEACH CMAN 1500   60      20/ 20/ 25 1025.2R
CAPERS NEARSHORE 1508   59 76   30/ 21/ 29 1024.0R
FRIPP NEARSHORE  1508   63      40/ 21/ 27   N/A


STATION/POSITION TIME  TEMP    WIND        PRES    WAVE   SWELL
                       AIR SEA DIR/SP/G            HT/PER HT/PER/DIR
                 (UTC) (F)     (DEG/KT/KT) (MB)    (FT/S) (FT/S/D)
5E ST. MARYS GA  1430      80                N/A     7/ 7   2/100/11
FRYING PAN BUOY  1500   66 77   20/ 23/ 29 1023.3
BUOY 41025       1450   65 81   20/ 23/ 29 1023.3R   9/ 8   3/ 50/10
CAPE LOOKOUT NC  1500   63      10/ 17/ 23 1024.2R
BUOY 41002       1450   75 79   30/ 23/ 27 1017.4R  14/11   8/ 40/11
BUOY 41010       NOT AVBL
ST AUGUSTINE FL  1500   75 80   20/ 29/ 32 1020.0R


$$




USA.gov is the U.S. government's official web portal to all federal, state and local government web resources and services.